Regional Weather Roundup
Issued by NWS Kansas City/Pleasant Hill, MO

Home | Current Version | Previous Version | Graphics & Text | Print | Product List | Glossary Off
Versions: 1 2 3 4 5 6 7 8 9 10 11 12 13 14 15 16 17 18 19 20 21 22 23 24 25 26 27 28 29 30 31 32 33 34 35 36 37 38 39 40 41 42 43 44 45 46 47 48 49 50

000
ASUS43 KEAX 301704
RWREAX

WEATHER ROUNDUP FOR EASTERN KANSAS AND NORTHWEST MISSOURI
NATIONAL WEATHER SERVICE KANSAS CITY/PLEASANT HILL MO
1200 PM CDT SAT MAY 30 2015

KSZ040-057-103>105-MOZ028-029-037-043-301800-
...KANSAS CITY METROPOLITAN AREA...

CITY           SKY/WX    TMP DP  RH WIND       PRES   REMARKS
K.C. INTL      CLOUDY    58  54  86 N13       30.11R
K.C. DOWNTOWN  CLOUDY    60  54  80 NW10      30.10S
LEES SUMMIT    CLOUDY    59  54  83 NW9       30.11R
OLATHE - IXD   CLOUDY    58  54  86 NW13      30.13R
OLATHE - OJC   CLOUDY    58  54  86 N12       30.11R
LAWRENCE       CLOUDY    58  52  80 N13       30.14R

$$

MOZ001>008-011>017-020>025-030>033-038>040-044>046-053-054-301800-
...NORTHERN AND CENTRAL MISSOURI...

CITY           SKY/WX    TMP DP  RH WIND       PRES   REMARKS
ST. JOSEPH     CLOUDY    58  54  86 N14       30.13R
MOSBY          CLOUDY    59  54  82 NW13G20   30.10R
WARRENSBURG    CLOUDY    61  55  82 NW10G16   30.08R
WHITEMAN AFB   CLOUDY    63  59  88 NW9       30.06R
CLINTON        CLOUDY    64  61  88 NW14      30.08R
SEDALIA        CLOUDY    65  60  84 NW14      30.06R
WARSAW         CLOUDY    64  63  94 NW12      30.06R
CHILLICOTHE      N/A     63  57  81 VRB7      30.09R
KIRKSVILLE     CLOUDY    64  60  87 NW12      30.05S

$$

MOZ041-047>049-056>058-063>065-088>090-097-301800-
...EASTERN AND SOUTHERN MISSOURI...

CITY           SKY/WX    TMP DP  RH WIND       PRES   REMARKS
ST. LOUIS INTL CLOUDY    73  67  81 W8        29.96S
SPIRIT OF STL  LGT RAIN  69  68  96 NW7       29.96S FOG
COLUMBIA       PTSUNNY   74  66  76 NW13      30.00S
JEFFERSON CITY PTSUNNY   71  66  84 NW9       29.99S
MEXICO         CLOUDY   N/A N/A N/A N6        30.00R
ROLLA          CLOUDY    68  65  90 N6        29.98S
LEBANON        LGT RAIN  70  64  83 NW10      30.03R
OSAGE BEACH    CLOUDY    72  66  83 N8        30.00F
SPRINGFIELD    CLOUDY    71  64  78 NW12      30.05R
BRANSON        PTSUNNY   72  64  78 NW9G16    30.05R
NEVADA         CLOUDY    61  57  88 NW10      30.10R
JOPLIN         CLOUDY    64  61  90 NW12      30.09R
WEST PLAINS    CLOUDY    67  64  90 W5        30.01S

$$

IAZ060-094-KSZ022-034>040-054-083-096-NEZ052-066-093-301800-
...KANSAS...SOUTHEAST NEBRASKA AND IOWA...

CITY           SKY/WX    TMP DP  RH WIND       PRES   REMARKS
TOPEKA         CLOUDY    58  52  80 N10       30.16R
MANHATTAN      CLOUDY    58  50  75 N9        30.19R
EMPORIA        CLOUDY    57  52  83 NW12      30.16R
CHANUTE        CLOUDY    62  56  80 N12       30.13R
WICHITA        CLOUDY    58  48  69 N15G23    30.20R
OMAHA          PTSUNNY   58  47  66 N18G25    30.19R
LINCOLN        CLOUDY    58  45  62 N20       30.21S
FALLS CITY     CLOUDY    57  51  80 N13G22    30.15R
LAMONI         CLOUDY    60  53  77 N16       30.10R
DES MOINES     DRIZZLE   58  52  80 N14       30.12R

$$



USA.gov is the U.S. government's official web portal to all federal, state and local government web resources and services.